TimeEDT,TemperatureF,Dew PointF,Humidity,Sea Level PressureIn,VisibilityMPH,Wind Direction,Wind SpeedMPH,Gust SpeedMPH,PrecipitationIn,Events,Conditions,WindDirDegrees,DateUTC
12:46 AM,71.6,66.2,83,30.05,10.0,SSW,6.9,-,N/A,,Overcast,200,2013-08-08 04:46:00
12:54 AM,72.0,66.9,84,30.04,10.0,South,9.2,-,N/A,,Overcast,190,2013-08-08 04:54:00
1:54 AM,71.1,66.9,87,30.03,10.0,SW,4.6,-,N/A,,Overcast,220,2013-08-08 05:54:00
2:54 AM,71.1,66.9,87,30.04,10.0,SSW,3.5,-,N/A,,Overcast,210,2013-08-08 06:54:00
3:54 AM,71.1,66.9,87,30.03,10.0,Calm,Calm,-,N/A,,Overcast,0,2013-08-08 07:54:00
4:54 AM,70.0,66.9,90,30.01,10.0,South,3.5,-,N/A,,Overcast,170,2013-08-08 08:54:00
5:54 AM,70.0,66.9,90,30.02,10.0,Calm,Calm,-,N/A,,Overcast,0,2013-08-08 09:54:00
6:09 AM,69.8,66.2,88,30.03,10.0,South,4.6,-,N/A,,Overcast,190,2013-08-08 10:09:00
6:54 AM,71.1,66.9,87,30.04,10.0,Calm,Calm,-,N/A,,Overcast,0,2013-08-08 10:54:00
7:54 AM,71.1,68.0,90,30.04,10.0,Calm,Calm,-,N/A,,Overcast,0,2013-08-08 11:54:00
8:09 AM,71.6,68.0,88,30.05,6.0,Calm,Calm,-,N/A,,Overcast,0,2013-08-08 12:09:00
8:44 AM,71.6,68.0,88,30.05,10.0,South,4.6,-,N/A,,Overcast,180,2013-08-08 12:44:00
8:54 AM,73.0,69.1,87,30.05,10.0,South,3.5,-,N/A,,Overcast,180,2013-08-08 12:54:00
9:36 AM,75.2,69.8,83,30.05,10.0,SSW,6.9,-,N/A,,Overcast,210,2013-08-08 13:36:00
9:54 AM,75.9,69.1,79,30.04,10.0,Variable,6.9,-,N/A,,Mostly Cloudy,0,2013-08-08 13:54:00
10:54 AM,78.1,69.1,74,30.02,10.0,South,5.8,-,N/A,,Overcast,190,2013-08-08 14:54:00
11:54 AM,79.0,69.1,72,30.02,10.0,SW,6.9,-,N/A,,Mostly Cloudy,220,2013-08-08 15:54:00
12:19 PM,80.6,69.8,70,30.03,10.0,SSW,6.9,-,N/A,,Mostly Cloudy,200,2013-08-08 16:19:00
12:54 PM,80.1,70.0,71,30.02,10.0,SSW,5.8,-,N/A,,Overcast,200,2013-08-08 16:54:00
1:52 PM,80.6,71.6,74,30.02,10.0,South,10.4,-,N/A,,Mostly Cloudy,180,2013-08-08 17:52:00
1:54 PM,80.1,71.1,74,30.02,10.0,South,10.4,-,N/A,,Mostly Cloudy,190,2013-08-08 17:54:00
2:54 PM,79.0,71.1,77,30.02,10.0,South,8.1,-,N/A,,Overcast,190,2013-08-08 18:54:00
3:04 PM,80.6,71.6,74,30.02,10.0,South,10.4,-,N/A,,Overcast,180,2013-08-08 19:04:00
3:54 PM,81.0,71.1,72,30.01,10.0,South,4.6,-,N/A,,Mostly Cloudy,190,2013-08-08 19:54:00
4:54 PM,82.0,71.1,69,29.99,10.0,South,8.1,-,N/A,,Overcast,180,2013-08-08 20:54:00
5:54 PM,77.0,70.0,79,30.00,10.0,SSE,10.4,24.2,N/A,,Overcast,150,2013-08-08 21:54:00
6:54 PM,75.9,72.0,87,30.00,10.0,South,4.6,-,0.01,,Scattered Clouds,180,2013-08-08 22:54:00
7:54 PM,75.0,71.1,87,30.00,10.0,SSW,9.2,-,N/A,,Mostly Cloudy,200,2013-08-08 23:54:00
8:54 PM,73.0,71.1,93,30.01,10.0,Calm,Calm,-,0.01,,Clear,0,2013-08-09 00:54:00
9:54 PM,72.0,70.0,93,30.01,10.0,SSE,3.5,-,0.00,,Partly Cloudy,150,2013-08-09 01:54:00
10:54 PM,71.1,69.1,93,30.00,9.0,Calm,Calm,-,N/A,,Partly Cloudy,0,2013-08-09 02:54:00
11:09 PM,71.6,69.8,94,30.00,10.0,SSW,3.5,-,N/A,,Mostly Cloudy,200,2013-08-09 03:09:00
11:49 PM,71.6,69.8,94,30.01,10.0,Calm,Calm,-,N/A,,Overcast,0,2013-08-09 03:49:00
11:54 PM,72.0,70.0,93,30.00,10.0,Calm,Calm,-,N/A,,Overcast,0,2013-08-09 03:54:00